When you browse on this site, cookies collect data to enhance your experience and personalize the content and advertising you see.
Visit our Privacy Policy to learn more. By continuing to use the site, you agree to this use of cookies and data.
  • In Lithuania
  • List of Countries
  • For 7 days
  • Water Temperature
  • Satellite Maps
  • Weather Map
  • Weather Widgets
  • user-avatar
    Login

    Hourly Weather Maidstone

    Today, 25 June, Tuesday

    Time Temperature Precipitation Wind Pressure Humidity
    00:00 +18°C° 0 mm 2 mps 761 mmHg 74%
    01:00 +18°C° 0.3 mm 3 mps 760 mmHg 78%
    02:00 +18°C° 0.3 mm 4 mps 760 mmHg 83%
    03:00 +17°C° 0.3 mm 4 mps 759 mmHg 87%
    04:00 +18°C° 0.9 mm 3 mps 759 mmHg 89%
    05:00 +18°C° 0.9 mm 3 mps 759 mmHg 92%
    06:00 +18°C° 0 mm 3 mps 760 mmHg 93%
    07:00 +19°C° 0.3 mm 3 mps 760 mmHg 91%
    08:00 +20°C° 0.3 mm 4 mps 760 mmHg 88%
    09:00 +20°C° 0.3 mm 4 mps 760 mmHg 86%
    10:00 +21°C° 0.1 mm 4 mps 760 mmHg 84%
    11:00 +22°C° 0.1 mm 4 mps 761 mmHg 82%
    12:00 +22°C° 0.1 mm 4 mps 761 mmHg 79%
    13:00 +22°C° 0 mm 3 mps 761 mmHg 80%
    14:00 +22°C° 0 mm 3 mps 761 mmHg 80%
    15:00 +23°C° 0 mm 2 mps 762 mmHg 80%
    16:00 +23°C° 0 mm 2 mps 762 mmHg 81%
    17:00 +23°C° 0 mm 2 mps 763 mmHg 82%
    18:00 +23°C° 0 mm 2 mps 763 mmHg 83%
    19:00 +21°C° 0 mm 2 mps 763 mmHg 86%
    20:00 +21°C° 0 mm 1 mps 764 mmHg 88%
    21:00 +20°C° 0 mm 1 mps 764 mmHg 90%
    22:00 +19°C° 0 mm 2 mps 765 mmHg 92%
    23:00 +18°C° 0 mm 2 mps 765 mmHg 94%

    Tomorrow, 26 June, Wednesday

    Time Temperature Precipitation Wind Pressure Humidity
    00:00 +17°C° 0 mm 2 mps 765 mmHg 95%
    01:00 +17°C° 0 mm 3 mps 765 mmHg 95%
    02:00 +17°C° 0 mm 3 mps 765 mmHg 95%
    03:00 +15°C° 0 mm 4 mps 766 mmHg 95%
    04:00 +17°C° 0 mm 4 mps 766 mmHg 94%
    05:00 +17°C° 0 mm 4 mps 766 mmHg 93%
    06:00 +17°C° 0 mm 4 mps 767 mmHg 91%
    07:00 +18°C° 0 mm 4 mps 767 mmHg 89%
    08:00 +18°C° 0 mm 4 mps 767 mmHg 87%
    09:00 +19°C° 0 mm 4 mps 768 mmHg 85%
    10:00 +19°C° 0 mm 5 mps 768 mmHg 84%
    11:00 +20°C° 0 mm 5 mps 768 mmHg 83%
    12:00 +20°C° 0 mm 6 mps 768 mmHg 81%
    13:00 +20°C° 0 mm 6 mps 768 mmHg 81%
    14:00 +20°C° 0 mm 7 mps 768 mmHg 81%
    15:00 +20°C° 0 mm 7 mps 768 mmHg 81%
    16:00 +18°C° 0 mm 7 mps 768 mmHg 82%
    17:00 +17°C° 0 mm 8 mps 768 mmHg 83%
    18:00 +16°C° 0 mm 8 mps 768 mmHg 84%
    19:00 +15°C° 0 mm 7 mps 768 mmHg 85%
    20:00 +15°C° 0 mm 7 mps 768 mmHg 86%
    21:00 +14°C° 0 mm 7 mps 769 mmHg 87%
    22:00 +12°C° 0 mm 7 mps 769 mmHg 88%
    23:00 +12°C° 0 mm 7 mps 769 mmHg 89%

    Day after tomorrow, 27 June, Thursday

    Time Temperature Precipitation Wind Pressure Humidity
    00:00 +12°C° 0 mm 7 mps 769 mmHg 89%
    01:00 +12°C° 0 mm 7 mps 769 mmHg 90%
    02:00 +12°C° 0 mm 7 mps 769 mmHg 90%
    03:00 +12°C° 0 mm 7 mps 769 mmHg 91%
    04:00 +12°C° 0 mm 7 mps 769 mmHg 88%
    05:00 +14°C° 0 mm 7 mps 769 mmHg 86%
    06:00 +14°C° 0 mm 7 mps 769 mmHg 83%
    07:00 +15°C° 0 mm 7 mps 769 mmHg 78%
    08:00 +16°C° 0 mm 8 mps 769 mmHg 73%
    09:00 +17°C° 0 mm 8 mps 769 mmHg 68%
    10:00 +18°C° 0 mm 8 mps 769 mmHg 66%
    11:00 +18°C° 0 mm 8 mps 769 mmHg 64%
    12:00 +20°C° 0 mm 8 mps 769 mmHg 62%
    13:00 +20°C° 0 mm 8 mps 769 mmHg 64%
    14:00 +18°C° 0 mm 8 mps 769 mmHg 67%
    15:00 +18°C° 0 mm 8 mps 769 mmHg 70%
    16:00 +18°C° 0 mm 8 mps 768 mmHg 72%
    17:00 +17°C° 0 mm 8 mps 768 mmHg 74%
    18:00 +16°C° 0 mm 7 mps 768 mmHg 77%
    19:00 +15°C° 0 mm 7 mps 768 mmHg 79%
    20:00 +14°C° 0 mm 7 mps 768 mmHg 82%
    21:00 +14°C° 0 mm 7 mps 768 mmHg 85%
    22:00 +13°C° 0 mm 6 mps 768 mmHg 86%
    23:00 +13°C° 0 mm 6 mps 768 mmHg 87%

    28 June, Friday

    Time Temperature Precipitation Wind Pressure Humidity
    00:00 +13°C° 0 mm 6 mps 768 mmHg 88%
    01:00 +13°C° 0 mm 5 mps 768 mmHg 90%
    02:00 +12°C° 0 mm 5 mps 768 mmHg 92%
    03:00 +12°C° 0 mm 4 mps 767 mmHg 93%
    04:00 +13°C° 0 mm 5 mps 767 mmHg 91%
    05:00 +14°C° 0 mm 5 mps 767 mmHg 89%
    06:00 +14°C° 0 mm 6 mps 767 mmHg 87%
    07:00 +15°C° 0 mm 6 mps 767 mmHg 83%
    08:00 +17°C° 0 mm 6 mps 767 mmHg 79%
    09:00 +18°C° 0 mm 7 mps 767 mmHg 75%
    10:00 +18°C° 0 mm 7 mps 766 mmHg 73%
    11:00 +20°C° 0 mm 7 mps 766 mmHg 71%
    12:00 +20°C° 0 mm 7 mps 766 mmHg 69%
    13:00 +20°C° 0 mm 7 mps 766 mmHg 69%
    14:00 +20°C° 0 mm 7 mps 765 mmHg 68%
    15:00 +20°C° 0 mm 6 mps 765 mmHg 68%
    16:00 +20°C° 0 mm 6 mps 765 mmHg 71%
    17:00 +19°C° 0 mm 6 mps 764 mmHg 74%
    18:00 +17°C° 0 mm 6 mps 764 mmHg 77%
    19:00 +16°C° 0 mm 5 mps 764 mmHg 81%
    20:00 +15°C° 0 mm 5 mps 764 mmHg 85%
    21:00 +14°C° 0 mm 4 mps 764 mmHg 88%
    22:00 +14°C° 0 mm 4 mps 764 mmHg 89%
    23:00 +14°C° 0 mm 4 mps 763 mmHg 89%

    29 June, Saturday

    Time Temperature Precipitation Wind Pressure Humidity
    00:00 +14°C° 0 mm 4 mps 763 mmHg 89%
    01:00 +14°C° 0 mm 3 mps 763 mmHg 90%
    02:00 +14°C° 0 mm 3 mps 762 mmHg 90%
    03:00 +14°C° 0 mm 3 mps 762 mmHg 91%
    04:00 +16°C° 0 mm 3 mps 762 mmHg 87%
    05:00 +17°C° 0 mm 3 mps 762 mmHg 84%
    06:00 +18°C° 0 mm 3 mps 761 mmHg 80%
    07:00 +19°C° 0 mm 3 mps 761 mmHg 76%
    08:00 +21°C° 0 mm 3 mps 761 mmHg 72%
    09:00 +22°C° 0 mm 3 mps 761 mmHg 68%
    10:00 +23°C° 0 mm 4 mps 760 mmHg 65%
    11:00 +25°C° 0 mm 4 mps 760 mmHg 62%
    12:00 +27°C° 0 mm 4 mps 759 mmHg 60%
    13:00 +27°C° 0 mm 4 mps 759 mmHg 59%
    14:00 +27°C° 0 mm 4 mps 758 mmHg 57%
    15:00 +28°C° 0 mm 4 mps 758 mmHg 56%
    16:00 +27°C° 0 mm 4 mps 758 mmHg 61%
    17:00 +27°C° 0 mm 3 mps 757 mmHg 65%
    18:00 +26°C° 0 mm 3 mps 757 mmHg 70%
    19:00 +25°C° 0 mm 2 mps 757 mmHg 74%
    20:00 +23°C° 0 mm 2 mps 757 mmHg 78%
    21:00 +20°C° 0 mm 2 mps 757 mmHg 83%
    22:00 +20°C° 0 mm 2 mps 757 mmHg 84%
    23:00 +19°C° 0 mm 3 mps 756 mmHg 86%

    30 June, Sunday

    Time Temperature Precipitation Wind Pressure Humidity
    00:00 +18°C° 0 mm 3 mps 756 mmHg 87%
    01:00 +18°C° 0 mm 3 mps 756 mmHg 84%
    02:00 +17°C° 0 mm 4 mps 756 mmHg 81%
    03:00 +17°C° 0 mm 4 mps 756 mmHg 79%
    04:00 +17°C° 0 mm 4 mps 757 mmHg 78%
    05:00 +17°C° 0 mm 4 mps 757 mmHg 77%
    06:00 +17°C° 0 mm 4 mps 758 mmHg 77%
    07:00 +18°C° 0 mm 4 mps 758 mmHg 75%
    08:00 +19°C° 0 mm 4 mps 759 mmHg 73%
    09:00 +20°C° 0 mm 5 mps 759 mmHg 71%
    10:00 +21°C° 0 mm 5 mps 759 mmHg 69%
    11:00 +21°C° 0 mm 5 mps 759 mmHg 67%
    12:00 +22°C° 0 mm 6 mps 760 mmHg 65%
    13:00 +22°C° 0 mm 6 mps 760 mmHg 65%
    14:00 +23°C° 0 mm 5 mps 760 mmHg 64%
    15:00 +23°C° 0 mm 5 mps 760 mmHg 64%
    16:00 +22°C° 0 mm 5 mps 759 mmHg 67%
    17:00 +22°C° 0 mm 5 mps 759 mmHg 70%
    18:00 +21°C° 0 mm 5 mps 759 mmHg 74%
    19:00 +19°C° 0 mm 4 mps 760 mmHg 79%
    20:00 +18°C° 0 mm 4 mps 760 mmHg 85%
    21:00 +16°C° 0 mm 3 mps 760 mmHg 91%
    22:00 +16°C° 0 mm 3 mps 760 mmHg 90%
    23:00 +14°C° 0 mm 3 mps 760 mmHg 90%
    Show more